OBJECT B
1 43759U 18099B 19031.78265663 -.00000249 00000-0 -17370-4 0 9991
2 43759 97.7613 105.3568 0015568 63.5004 296.7811 14.95062360 8811
OBJECT C
1 43760U 18099C 19031.78389613 .00000216 00000-0 24993-4 0 9996
2 43760 97.7606 105.3439 0015159 69.2550 291.0293 14.95054009 8821
OBJECT D
1 43761U 18099D 19030.91625314 -.00000272 00000-0 -19550-4 0 9999
2 43761 097.7637 104.5082 0015835 071.8935 288.4009 14.94965710008697
OBJECT F
1 43763U 18099F 19031.83300585 .00000801 00000-0 77473-4 0 9997
2 43763 97.7602 105.4323 0014950 69.1549 291.1261 14.95490880 8836
OBJECT J
1 43766U 18099J 19031.80723655 .00000563 00000-0 57528-4 0 9998
2 43766 97.7600 105.3127 0012769 67.9953 292.2622 14.94444767 8823
AO-95
1 43770U 18099N 19031.19596476 .00000247 00000-0 28031-4 0 9990
2 43770 97.7614 104.7369 0016025 77.6141 282.6872 14.94666347 8730
OBJECT P
1 43771U 18099P 19031.19567332 .00000259 00000-0 29134-4 0 9998
2 43771 97.7614 104.7368 0016046 77.6575 282.6441 14.94675130 8725
RANGE-A
1 43772U 18099Q 19031.19335434 .00000279 00000-0 30984-4 0 9992
2 43772 97.7663 104.7766 0015462 66.1431 294.1407 14.94739582 8729
RANGE-B
1 43773U 18099R 19031.19332439 .00000079 00000-0 12584-4 0 9999
2 43773 97.7562 104.7060 0014872 66.2366 294.0412 14.94729134 8724
OBJECT T
1 43775U 18099T 19031.18819588 -.00000106 00000-0 -43932-5 0 9990
2 43775 97.7623 104.7590 0016019 69.6369 290.6570 14.94859776 8719
OBJECT U
1 43776U 18099U 19031.18814402 -.00000152 00000-0 -86554-5 0 9999
2 43776 97.7621 104.7590 0016032 69.4653 290.8286 14.94858408 8714
OBJECT V
1 43777U 18099V 19031.40201065 .00000533 00000-0 54741-4 0 9993
2 43777 97.7570 104.9010 0017021 71.2926 289.0140 14.94419557 8751
OBJECT W
1 43778U 18099W 19031.19201643 .00000121 00000-0 16405-4 0 9990
2 43778 97.7523 104.6737 0015440 74.5739 285.7186 14.94767470 8308
OBJECT X
1 43779U 18099X 19031.18816468 -.00000132 00000-0 -67719-5 0 9996
2 43779 97.7623 104.7588 0016021 69.5402 290.7537 14.94859036 8713
MOVE-II
1 43780U 18099Y 19031.18723684 .00000193 00000-0 22984-4 0 9994
2 43780 97.7599 104.7330 0014925 76.3675 283.9206 14.94901198 8715
SNUSat 2
1 43782U 18099AA 19031.18448421 -.00000128 00000-0 -64247-5 0 9998
2 43782 97.7610 104.7494 0014093 66.3440 293.9258 14.94960301 8727
OBJECT AC
1 43784U 18099AC 19031.18158297 -.00000151 00000-0 -84582-5 0 9999
2 43784 97.7575 104.7245 0016524 73.3575 286.9458 14.95034725 8739
ITASat 1
1 43786U 18099AE 19031.18083882 -.00000199 00000-0 -12801-4 0 9994
2 43786 97.7630 104.7692 0016602 72.2131 288.0899 14.95053030 8734
OBJECT AH
1 43789U 18099AH 19031.16626435 .00000146 00000-0 18453-4 0 9991
2 43789 97.7610 104.7668 0017317 71.2292 289.0806 14.95435388 8424
EAGLET 1
1 43790U 18099AJ 19031.16572716 -.00000012 00000-0 41863-5 0 9990
2 43790 97.7622 104.7813 0014992 77.1835 283.1060 14.95438842 8420
ESEO
1 43792U 18099AL 19031.16448297 -.00000018 00000-0 36570-5 0 9993
2 43792 97.7605 104.7720 0014861 74.5650 285.7211 14.95465957 8480
CSIM
1 43793U 18099AM 19031.16269839 .00000445 00000-0 45311-4 0 9992
2 43793 97.7556 104.7246 0014498 73.7917 286.4898 14.95535596 8455
Astrocast 0.1
1 43798U 18099AS 19030.82199074 .00000453 00000-0 45921-4 0 9998
2 43798 97.7610 104.4509 0013839 61.3468 298.9143 14.95676717 8667
OBJECT AV
1 43801U 18099AV 19031.77930060 -.00000141 00000-0 -75635-5 0 9998
2 43801 97.7570 105.3186 0015526 64.3933 295.8890 14.95153560 8811
JO-97
1 43803U 18099AX 19031.77903823 -.00000142 00000-0 -76396-5 0 9993
2 43803 97.7586 105.3338 0016564 71.2700 289.0317 14.95163857 8810
Suomi 100
1 43804U 18099AY 19031.77877556 -.00000173 00000-0 -10396-4 0 9998
2 43804 97.7585 105.3334 0016639 71.3600 288.9425 14.95168883 8822
Al Farabi 2
1 43805U 18099AZ 19031.77800018 -.00000055 00000-0 29509-6 0 9994
2 43805 97.7586 105.3345 0016671 71.5724 288.7308 14.95195859 8822
OBJECT BA
1 43806U 18099BA 19031.77784573 -.00000256 00000-0 -17962-4 0 9994
2 43806 97.7586 105.3323 0016355 69.6652 290.6324 14.95188329 8516
OBJECT BD
1 43809U 18099BD 19031.83956134 -.00000196 00000-0 -12485-4 0 9996
2 43809 97.7603 105.4228 0016692 72.2564 288.0477 14.95321670 8529
OBJECT BE
1 43810U 18099BE 19031.77253973 -.00000227 00000-0 -15337-4 0 9996
2 43810 97.7515 105.2917 0015894 67.7662 292.5242 14.95320965 8365
PWSat 2
1 43814U 18099BJ 19031.11232654 .00009271 00000-0 83877-3 0 9990
2 43814 97.7644 104.6924 0007111 95.4470 264.7368 14.95620134 8115
OBJECT BQ
1 43820U 18099BQ 19031.77304360 -.00000211 00000-0 -13906-4 0 9997
2 43820 97.7561 105.3272 0013988 63.7554 296.5103 14.95309339 8216
CHOMPTT
1 43855U 18104G 19031.38792595 .00000043 00000-0 00000 0 0 9997
2 43855 85.0396 147.8541 0020241 100.8879 259.4684 15.22115137 6989
ISAT
1 43879U 18111D 19031.19775929 -.00000038 00000-0 17810-5 0 9990
2 43879 97.7261 301.1484 0014272 123.5674 236.6912 14.95877705 3241
UWE-4
1 43880U 18111E 19031.79394889 -.00000147 00000-0 -78959-5 0 9993
2 43880 97.7271 301.7548 0013396 122.3881 237.8638 14.96123793 3334
Sparrow
1 43881U 18111F 19030.92350260 -.00000221 00000-0 -14415-4 0 9992
2 43881 097.7277 300.8992 0013495 123.7489 236.5020 14.96167647005196
Lume 1
1 43908U 18111AJ 19031.80103243 .00000939 00000-0 41359-4 0 9998
2 43908 97.2994 300.7553 0023339 115.8612 244.5035 15.24019729 5449
OrigamiSat 1
1 43933U 19003B 19031.78195807 .00000592 00000-0 29305-4 0 9993
2 43933 97.3029 93.6538 0017264 205.3650 294.8588 15.21414832 2084
NEXUS
1 43937U 19003F 19031.82287863 .00000968 00000-0 43570-4 0 9993
2 43937 97.2975 93.7179 0024053 194.8195 257.7677 15.23210294 2095
